Weather History for KMSL - February, 2013

Change the Weather History Date:

Tuesday, February 19, 2013

  Actual Average Record
Temperature  
Mean Temperature 42 °F 46 °F  
Max Temperature 52 °F 56 °F 76 °F (1986)
Min Temperature 31 °F 36 °F 5 °F (1958)
Degree Days  
Heating Degree Days 23 19  
Month to date heating degree days 375 398  
Since 1 July heating degree days 2048 2378  
Cooling Degree Days 0 0  
Month to date cooling degree days 0 0  
Year to date cooling degree days 7 0  
Moisture  
Dew Point 32 °F    
Average Humidity 56    
Maximum Humidity 86    
Minimum Humidity 26    
Precipitation  
Precipitation 0.04 in 0.18 in 3.38 in (1991)
Month to date precipitation 1.60 3.14  
Year to date precipitation 10.34 7.75  
Snow  
Snow 0.00 in - - ()
Month to date snowfall T  
Since 1 July snowfall T  
Snow Depth 0.00 in    
Sea Level Pressure  
Sea Level Pressure 30.10 in    
Wind  
Wind Speed 11 mph (WNW)    
Max Wind Speed 25 mph    
Max Gust Speed 30 mph    
Visibility 10 miles    
Events Rain    
T = Trace of Precipitation, MM = Missing Value Source: NWS Daily Summary

Daily Weather History Graph

Daily Weather History Graph

Search for Another Location

Airport or City:

Trip Planner

Search our weather history database for the weather conditions in past years. The results will help you decide how hot, cold, wet, or windy it might be!

Date:

Astronomy

Feb. 19, 2013 Rise Set
Actual Time 6:31 AM CST 5:37 PM CST
Civil Twilight 6:05 AM CST 6:03 PM CST
Nautical Twilight 5:36 AM CST 6:32 PM CST
Astronomical Twilight 5:07 AM CST 7:01 PM CST
Moon 12:16 PM CST (2/19) 1:55 AM CST (2/19)
Length of Visible Light 11h 57m
Length of Day
11h 06m
Waxing Gibbous, 67% of the Moon is Illuminated
Feb 19
Waxing Gibbous
Feb 25
Full
Mar 4
Last Quarter
Mar 11
New
Mar 19
First Quarter

Hourly Weather History & Observations

Time (CST) Temp. Windchill Dew Point Humidity Pressure Visibility Wind Dir Wind Speed Gust Speed Precip Events Conditions
12:53 AM 48.9 °F - 45.0 °F 86% 29.94 in 10.0 mi SSE 9.2 mph - 0.01 in   Overcast
1:53 AM 48.9 °F - 45.0 °F 86% 29.93 in 10.0 mi South 4.6 mph - 0.01 in   Overcast
2:13 AM 50.0 °F - 44.6 °F 82% 29.93 in 10.0 mi South 5.8 mph - N/A   Overcast
2:46 AM 50.0 °F - 46.4 °F 87% 29.94 in 5.0 mi SW 5.8 mph - 0.01 in Rain Light Rain
2:53 AM 50.0 °F - 46.0 °F 86% 29.94 in 10.0 mi WSW 6.9 mph - 0.01 in   Overcast
3:33 AM 50.0 °F - 46.4 °F 87% 29.95 in 5.0 mi WSW 6.9 mph - 0.00 in   Overcast
3:53 AM 50.0 °F - 46.0 °F 86% 29.96 in 7.0 mi WNW 16.1 mph 23.0 mph 0.01 in   Overcast
4:42 AM 46.4 °F 40.1 °F 41.0 °F 81% 30.01 in 10.0 mi NW 15.0 mph 21.9 mph N/A   Overcast
4:53 AM 46.9 °F - 39.9 °F 77% 30.01 in 10.0 mi NW 13.8 mph 20.7 mph N/A   Overcast
5:53 AM 45.0 °F 40.1 °F 36.0 °F 71% 30.06 in 10.0 mi NW 9.2 mph 19.6 mph N/A   Overcast
6:53 AM 43.0 °F 36.0 °F 34.0 °F 71% 30.09 in 10.0 mi NW 13.8 mph - N/A   Mostly Cloudy
7:09 AM 42.8 °F 35.4 °F 33.8 °F 70% 30.10 in 10.0 mi WNW 15.0 mph - N/A   Partly Cloudy
7:53 AM 44.1 °F 37.7 °F 34.0 °F 68% 30.13 in 10.0 mi NW 12.7 mph - N/A   Clear
8:53 AM 44.1 °F 37.4 °F 34.0 °F 68% 30.15 in 10.0 mi NW 13.8 mph - N/A   Clear
9:53 AM 46.0 °F 39.9 °F 32.0 °F 58% 30.17 in 10.0 mi West 13.8 mph - N/A   Clear
12:53 PM 51.1 °F - 24.1 °F 35% 30.17 in 10.0 mi West 17.3 mph - N/A   Clear
1:53 PM 52.0 °F - 21.9 °F 31% 30.17 in 10.0 mi WNW 19.6 mph 24.2 mph N/A   Clear
2:53 PM 52.0 °F - 18.0 °F 26% 30.17 in 10.0 mi WNW 20.7 mph 29.9 mph N/A   Clear
3:53 PM 51.1 °F - 17.1 °F 26% 30.18 in 10.0 mi WNW 18.4 mph - N/A   Clear
4:53 PM 48.9 °F - 17.1 °F 28% 30.20 in 10.0 mi WNW 13.8 mph - N/A   Clear
6:53 PM 42.1 °F 37.7 °F 21.0 °F 43% 30.22 in 10.0 mi WNW 6.9 mph - N/A   Clear
7:53 PM 42.1 °F 39.2 °F 21.0 °F 43% 30.23 in 10.0 mi NNW 4.6 mph - N/A   Clear
8:53 PM 39.9 °F 36.7 °F 21.9 °F 49% 30.27 in 10.0 mi NW 4.6 mph - N/A   Clear
9:53 PM 37.9 °F - 21.0 °F 51% 30.26 in 10.0 mi Calm Calm - N/A   Clear
10:53 PM 34.0 °F - 21.9 °F 61% 30.26 in 10.0 mi Calm Calm - N/A   Clear
11:53 PM 32.0 °F - 24.1 °F 73% 30.26 in 10.0 mi Calm Calm - N/A   Clear